GW4013 Weather Reports


time (UTC)temp
F
wind
direction
speed
knots
gust
knots
rain 1hr
in
rain 24hr
in
rain mn
in
humidity
%
barometer
mb
20260507020519 58 93 1.7 1.7 0.00 0.12 0.12 99 1006.6
20260507015514 58 105 1.7 2.6 0.00 0.12 0.12 99 1006.4
20260507014513 58 77 0.9 2.6 0.00 0.12 0.12 99 1006.3
20260507013512 58 113 3.5 4.3 0.00 0.12 0.12 99 1006.1
20260507012512 58 118 4.3 5.2 0.00 0.12 0.12 99 1006.2
20260507011512 58 113 1.7 1.7 0.00 0.12 0.12 99 1006.3
20260507010508 58 110 3.5 3.5 0.00 0.12 0.12 99 1006.0
20260507005508 58 109 2.6 2.6 0.00 0.12 0.12 99 1005.9
20260507004507 58 109 2.6 2.6 0.00 0.12 0.12 99 1005.9
20260507003506 58 106 2.6 2.6 0.00 0.12 0.12 99 1005.9
20260507002504 58 99 1.7 1.7 0.00 0.12 0.12 99 1005.8
20260507001503 58 103 0.9 2.6 0.00 0.12 0.12 99 1006.0
20260507000502 58 132 7.8 9.6 0.00 0.12 0.12 99 1006.0
20260506235501 58 132 7.8 9.6 0.00 0.12 0.12 99 1006.1
20260506234500 58 132 7.8 9.6 0.00 0.12 0.12 99 1006.0
20260506233500 58 132 7.8 9.6 0.00 0.12 0.12 99 1005.9
20260506232459 58 91 2.6 3.5 0.00 0.12 0.12 99 1005.9
20260506231458 58 91 2.6 3.5 0.00 0.12 0.12 99 1005.9
20260506230458 58 91 2.6 3.5 0.00 0.12 0.12 99 1005.7
20260506225458 58 91 2.6 3.5 0.00 0.12 0.12 99 1005.6
20260506224457 58 91 2.6 3.5 0.00 0.12 0.12 99 1005.7
20260506223456 58 114 4.3 5.2 0.00 0.12 0.12 99 1005.7
20260506222455 58 114 4.3 5.2 0.00 0.12 0.12 99 1005.5
20260506221454 58 127 3.5 3.5 0.00 0.12 0.12 99 1005.5
20260506220453 58 159 1.7 3.5 0.00 0.12 0.12 99 1005.6
20260506215451 58 174 2.6 6.1 0.00 0.12 0.12 99 1005.7
20260506214449 58 141 0.9 1.7 0.00 0.12 0.12 99 1005.4
20260506213449 58 124 2.6 2.6 0.00 0.12 0.12 99 1005.4
20260506212448 58 191 1.7 3.5 0.00 0.12 0.12 99 1005.5
20260506211444 59 128 2.6 3.5 0.00 0.12 0.12 99 1005.6
20260506210444 58 155 1.7 2.6 0.00 0.12 0.12 99 1005.5
20260506205443 59 121 2.6 4.3 0.02 0.12 0.12 99 1005.8
20260506204443 59 121 2.6 4.3 0.00 0.12 0.12 99 1005.9
20260506203443 58 138 7.0 7.8 0.05 0.12 0.12 99 1006.0
20260506202444 59 142 1.7 5.2 0.09 0.11 0.11 99 1005.9
20260506201438 59 142 1.7 5.2 0.09 0.09 0.09 99 1006.2
20260506200436 59 212 3.5 5.2 0.00 0.08 0.08 99 1006.0
20260506195436 59 230 2.6 4.3 0.00 0.08 0.08 99 1006.3
20260506194436 59 172 2.6 5.2 0.05 0.08 0.08 98 1006.3
20260506193435 59 214 4.3 4.3 0.02 0.07 0.07 98 1006.3
20260506192435 59 194 2.6 3.5 0.00 0.07 0.07 98 1006.4
20260506191434 59 128 0.9 5.2 0.00 0.07 0.07 98 1006.6
20260506190433 59 141 8.7 9.6 0.00 0.07 0.07 98 1006.3
20260506185433 59 125 1.7 9.6 0.02 0.07 0.07 97 1006.6
20260506184432 59 206 5.2 5.2 0.00 0.06 0.06 97 1006.6
20260506183431 59 114 3.5 5.2 0.02 0.06 0.06 97 1007.0
20260506182426 59 206 3.5 3.5 0.07 0.06 0.06 97 1007.1
20260506181421 59 204 3.5 3.5 0.05 0.05 0.05 96 1007.1
20260506180420 60 113 2.6 3.5 0.05 0.04 0.04 96 1006.9
20260506175419 60 168 3.5 5.2 0.05 0.03 0.03 95 1006.8
20260506174419 60 140 5.2 14.8 0.02 0.02 0.02 94 1007.0
20260506173419 60 179 2.6 3.5 0.05 0.02 0.02 93 1007.3
20260506172419 60 117 3.5 5.2 0.02 0.01 0.01 91 1007.7
20260506171419 61 180 2.6 7.8 0.00 0.00 0.00 90 1007.9
20260506170419 61 158 4.3 6.1 0.02 0.00 0.00 89 1008.0
20260506165416 62 176 5.2 7.8 0.00 0.00 0.00 87 1008.1
20260506164414 63 152 2.6 2.6 0.00 0.00 0.00 84 1008.1
20260506163413 63 232 4.3 6.1 0.00 0.00 0.00 84 1007.9
20260506162412 63 202 3.5 5.2 0.00 0.00 0.00 85 1008.1
20260506161407 64 215 6.1 9.6 0.00 0.00 0.00 80 1008.0
20260506160407 65 178 4.3 5.2 0.00 0.00 0.00 78 1008.1
20260506155402 66 152 2.6 4.3 0.00 0.00 0.00 77 1008.4
20260506153519 65 126 5.2 8.7 0.00 0.00 0.00 77 1008.4
20260506152519 66 209 7.8 8.7 0.00 0.00 0.00 75 1008.2
20260506151514 67 148 3.5 5.2 0.00 0.00 0.00 75 1008.0
20260506150513 67 214 5.2 5.2 0.00 0.00 0.00 74 1008.3
20260506145513 67 211 6.1 8.7 0.00 0.00 0.00 74 1008.4
20260506144513 67 141 3.5 6.1 0.00 0.00 0.00 74 1008.1
20260506143508 67 180 4.3 5.2 0.00 0.00 0.00 74 1008.5
20260506142503 66 151 7.0 9.6 0.00 0.00 0.00 75 1008.6
20260506141459 67 166 4.3 7.0 0.00 0.00 0.00 75 1008.6
20260506140454 66 155 3.5 5.2 0.00 0.00 0.00 77 1008.5
20260506135454 65 212 3.5 5.2 0.00 0.00 0.00 79 1008.7
20260506134452 64 210 7.8 7.8 0.00 0.00 0.00 79 1008.5
20260506133451 64 185 4.3 7.0 0.00 0.00 0.00 80 1008.4
20260506132451 64 177 3.5 4.3 0.00 0.00 0.00 80 1008.6
20260506131450 63 154 6.1 7.8 0.00 0.00 0.00 82 1008.6
20260506130450 63 153 1.7 2.6 0.00 0.00 0.00 83 1008.5
20260506125446 62 159 2.6 5.2 0.00 0.00 0.00 84 1008.7
20260506124441 62 173 1.7 5.2 0.00 0.00 0.00 84 1009.0
20260506123437 61 102 2.6 5.2 0.00 0.00 0.00 85 1009.1
20260506122436 61 94 0.9 5.2 0.00 0.00 0.00 86 1009.2
20260506121431 60 192 3.5 8.7 0.00 0.00 0.00 87 1008.9
20260506120426 60 206 4.3 7.8 0.00 0.00 0.00 87 1009.1
20260506115421 60 193 2.6 7.8 0.00 0.00 0.00 88 1009.1
20260506114416 59 132 2.6 3.5 0.00 0.00 0.00 88 1009.1
20260506113412 59 152 1.7 3.5 0.00 0.00 0.00 89 1009.3
20260506112412 59 109 1.7 4.3 0.00 0.00 0.00 89 1009.2
20260506111407 58 222 1.7 5.2 0.00 0.00 0.00 90 1009.1
20260506110408 58 111 3.5 5.2 0.00 0.00 0.00 90 1009.3
20260506105406 58 116 1.7 7.8 0.00 0.00 0.00 91 1009.3
20260506104401 57 180 1.7 6.1 0.00 0.00 0.00 91 1009.1
20260506103356 57 179 3.5 3.5 0.00 0.00 0.00 91 1009.4
20260506102351 57 137 1.7 4.3 0.00 0.00 0.00 92 1009.2
20260506101350 57 154 1.7 2.6 0.00 0.00 0.00 92 1009.0
20260506100346 57 134 2.6 4.3 0.00 0.00 0.00 91 1009.1
20260506095341 57 127 4.3 7.0 0.00 0.00 0.00 92 1009.1
20260506094337 57 261 2.6 5.2 0.00 0.00 0.00 91 1008.9
20260506093337 57 184 2.6 5.2 0.00 0.00 0.00 91 1009.0
20260506092333 57 162 3.5 5.2 0.00 0.00 0.00 91 1009.0
20260506091327 57 175 3.5 3.5 0.00 0.00 0.00 90 1008.9
20260506090322 57 180 5.2 6.1 0.00 0.00 0.00 90 1009.0
20260506085320 57 114 4.3 6.1 0.00 0.00 0.00 90 1009.1
20260506084320 57 200 4.3 7.0 0.00 0.00 0.00 89 1009.0
20260506083320 57 187 3.5 5.2 0.00 0.00 0.00 89 1009.3
20260506082319 58 197 4.3 6.1 0.00 0.00 0.00 89 1009.1
20260506081320 58 228 9.6 13.0 0.00 0.00 0.00 88 1009.1
20260506080319 58 131 3.5 7.0 0.00 0.00 0.00 88 1009.0
20260506073309 58 151 1.7 3.5 0.00 0.00 0.00 87 1009.2
20260506072309 58 101 1.7 5.2 0.00 0.00 0.00 87 1009.0
20260506071305 59 121 3.5 7.0 0.00 0.00 0.00 86 1009.3
20260506070304 59 157 4.3 5.2 0.00 0.00 0.00 85 1009.2
20260506062248 59 198 3.5 7.8 0.00 0.00 0.00 84 1008.9
20260506061246 60 195 3.5 5.2 0.00 0.00 0.00 83 1008.8
20260506060242 60 226 5.2 7.8 0.00 0.00 0.00 83 1008.9
20260506051231 61 197 4.3 4.3 0.00 0.00 0.00 81 1009.3
20260506050226 61 157 2.6 4.3 0.00 0.00 0.00 80 1009.3
20260506044220 62 163 1.7 7.8 0.00 0.00 0.00 77 1009.3
20260506043215 62 185 2.6 3.5 0.00 0.00 0.00 76 1009.3
20260506042212 63 194 1.7 5.2 0.00 0.00 0.00 75 1009.5
20260506041207 63 195 1.7 6.1 0.00 0.00 0.00 74 1009.3
20260506040207 63 196 2.6 7.0 0.00 0.00 0.00 73 1009.2
20260506035206 63 204 3.5 4.3 0.00 0.00 0.00 72 1009.4
20260506034206 63 203 7.0 7.8 0.00 0.00 0.00 71 1009.2
20260506033206 64 136 1.7 3.5 0.00 0.00 0.00 71 1009.4
20260506032206 64 150 3.5 10.4 0.00 0.00 0.00 71 1009.4
20260506031205 64 158 3.5 7.8 0.00 0.00 0.00 70 1009.2
20260506030200 64 131 5.2 5.2 0.00 0.00 0.00 70 1009.4
20260506025159 64 203 7.8 8.7 0.00 0.00 0.00 69 1009.2
20260506024159 64 142 4.3 7.8 0.00 0.00 0.00 70 1009.1
20260506023159 64 135 2.6 6.1 0.00 0.00 0.00 69 1009.2
20260506022159 64 179 4.3 5.2 0.00 0.00 0.00 68 1009.2